Location: 22
(39.7117°N, 89.5929°W)
Time: 07:48:36
(UTC-05:00)

ARIANE 6 FM1 Upper Stage - Pass Details

Date: 12 April 2026
Orbit: 526 x 601 km, 62.0° (Epoch: 18 May)

Event Time Altitude Azimuth Distance (km) Brightness Sun altitude
Rises 21:17:41 0° 264° (W) 2,728 7.0 -19.4°
Reaches altitude 10° 21:20:54 10° 290° (WNW) 1,820 6.4 -19.9°
Maximum altitude 21:23:02 14° 322° (NW) 1,581 5.9 -20.3°
Drops below altitude 10° 21:25:10 10° 354° (N) 1,803 5.7 -20.6°
Sets 21:28:20 0° 21° (NNE) 2,685 6.3 -21.1°
